STARLINK-34708

Satellite information

Favourite Embed

Satellite Type and Status

PAYLOADIN ORBIT

Key statistics

Satellite STARLINK-34708 at a glance.

Uptime

30

Days in orbit

Revolutions

≈ 15.4

Per day

Orbit

SSO

Sun Synchronous Orbit

Inclination

97.6

Latest

Satellite identification and parameters

Extended collection of information and parameters for STARLINK-34708.

Object identification

Identified? True

Debris? False

Object name: STARLINK-34708

International designator: 2025-165G

Object number (NORAD): 65062

Object ID (CCSDS): 65062

Country: UNITED STATES OF AMERICA (US)

Current information (Y/N): Y

RCS size: LARGE

Orbital parameters

Period: 93.546 minutes

Inclination: 97.6021 deg

SMA: 6826.162 km

Apoapsis: 448.756 km

Periapsis: 447.298 km

RAAN: 314.9844 deg

Eccentricy: 0.00010678

Argument of periapsis: 88.4607 deg

Mean anomaly: 271.676 deg

Mean motion: 15.39351832 rev/day

Mean motion (dot): 0.000104 rev/day2

B* drag term: 0.00026844597 1/REarth

Two-line elements (TLE)

Creation date: Aug. 30, 2025, 3:38 a.m.

Reference frame: TEME

Reference center: EARTH

Epoch: Aug. 29, 2025, 6:35 p.m. UTC

TLE line 0: 0 STARLINK-34708

TLE line 1: 1 65062U 25165G 25241.77491261 .00010400 00000-0 26845-3 0 9992

TLE line 2: 2 65062 97.6021 314.9844 0001068 88.4607 271.6760 15.39351832 5719

Live tracking on map

Real-time ground track for satellite STARLINK-34708.

In-orbit conjunctions

There are no conjunctions computed for STARLINK-34708, at the moment. Check back to stay up to date, as we update our databases every day.

Go to all conjunctions

Associated space launch

A batch of 19 satellites for the Starlink mega-constellation - SpaceX's project for space-based Internet communication system.

STARLINK-34708 was lifted into orbit during the mission ‘Falcon 9 Block 5 | Starlink Group 13-4’, on board a Falcon 9 space rocket.

The launch took place on July 31, 2025, 6:35 p.m. from Space Launch Complex 4E.

For more information about the launch, click the button.

Launch to space Falcon 9 Block 5 | Starlink Group 13-4
Falcon 9 Block 5 | Starlink Group 13-4

Agency: SpaceX

Status: Launch Successful

Launch date: July 31, 2025, 6:35 p.m. UTC

Rocket: Falcon 9

Launch pad: Space Launch Complex 4E

Location: Vandenberg SFB, CA, USA

...

Latest news about this satellite

News about space launch
SpaceX launches West Coast Falcon 9 rocket on Starlink 13-4 mission

Some classified satellites might have hitched a ride with 19 Starlink satellites launched by SpaceX from the company’s West Coast launch site on Thursday.

News about space launch
Launch Roundup: SpaceX to launch Crew-11 to ISS; ISRO and NASA launch new SAR satellite

With 10 launches scheduled from around the world, this week’s launch manifest is among the… The post Launch Roundup: SpaceX to launch Crew-11 to ISS; ISRO and NASA launch new SAR satellite appeared first on NASASpaceFlight.com.


Newsletter sign-up

Weekly statistics, charts and insights to help you stay on top of the space industry.